Weather History for KMLC - July, 2013

Change the Weather History Date:

Wednesday, July 24, 2013

  Actual Average Record
Temperature  
Mean Temperature 76 °F -  
Max Temperature 86 °F 93 °F 108 °F (1964)
Min Temperature 68 °F 71 °F 63 °F (2000)
Cooling Degree Days 11    
Growing Degree Days 26 (Base 50)    
Moisture  
Dew Point 67 °F    
Average Humidity 82    
Maximum Humidity 94    
Minimum Humidity 57    
Precipitation  
Precipitation 1.52 in - - ()
Sea Level Pressure  
Sea Level Pressure 29.98 in    
Wind  
Wind Speed 9 mph (NE)    
Max Wind Speed 25 mph    
Max Gust Speed 47 mph    
Visibility 8 miles    
Events Rain , Thunderstorm    
Averages and records for this station are not official NWS values.
T = Trace of Precipitation, MM = Missing Value Source: NWS Daily Summary

Daily Weather History Graph

Daily Weather History Graph

Search for Another Location

Airport or City:

Trip Planner

Search our weather history database for the weather conditions in past years. The results will help you decide how hot, cold, wet, or windy it might be!

Date:

Astronomy

Jul. 24, 2013 Rise Set
Actual Time 6:27 AM CDT 8:31 PM CDT
Civil Twilight 5:58 AM CDT 9:00 PM CDT
Nautical Twilight 5:24 AM CDT 9:34 PM CDT
Astronomical Twilight 4:47 AM CDT 10:11 PM CDT
Moon 9:47 PM CDT (7/24) 8:40 AM CDT (7/24)
Length of Visible Light 15h 01m
Length of Day
14h 04m
Waning Gibbous, 94% of the Moon is Illuminated
Jul 24
Waning Gibbous
Jul 29
Last Quarter
Aug 6
New
Aug 14
First Quarter
Aug 20
Full

Hourly Weather History & Observations

Time (CDT) Temp. Heat Index Dew Point Humidity Pressure Visibility Wind Dir Wind Speed Gust Speed Precip Events Conditions
12:53 AM 82.0 °F 86.3 °F 71.1 °F 69% 29.84 in 10.0 mi South 4.6 mph - N/A   Mostly Cloudy
1:34 AM 73.4 °F - 66.2 °F 78% 30.01 in 10.0 mi NNE 25.3 mph 47.2 mph N/A Thunderstorm Overcast
1:42 AM 71.6 °F - 66.2 °F 83% 30.01 in 8.0 mi NE 19.6 mph 39.1 mph 0.00 in Rain , Thunderstorm Thunderstorms and Rain
1:49 AM 69.8 °F - 66.2 °F 88% 30.00 in 3.0 mi NE 23.0 mph 36.8 mph 0.12 in Rain , Thunderstorm Heavy Thunderstorms and Rain
1:53 AM 69.1 °F - 66.9 °F 93% 29.96 in 1.2 mi NE 16.1 mph 36.8 mph 0.30 in Rain , Thunderstorm Heavy Thunderstorms and Rain
2:08 AM 68.0 °F - 66.2 °F 94% 30.00 in 2.0 mi NE 11.5 mph 29.9 mph 0.29 in Rain , Thunderstorm Heavy Rain
2:15 AM 68.0 °F - 66.2 °F 94% 30.00 in 4.0 mi ENE 8.1 mph 20.7 mph 0.33 in Rain , Thunderstorm Rain
2:35 AM 69.8 °F - 66.2 °F 88% 30.03 in 4.0 mi NE 6.9 mph - 0.40 in Rain , Thunderstorm Heavy Thunderstorms and Rain
2:45 AM 69.8 °F - 66.2 °F 88% 30.06 in 1.8 mi NNW 6.9 mph - 0.54 in Rain , Thunderstorm Heavy Thunderstorms and Rain
2:53 AM 69.1 °F - 66.0 °F 90% 30.02 in 1.8 mi North 9.2 mph 16.1 mph 0.71 in Rain , Thunderstorm Heavy Thunderstorms and Rain
3:01 AM 69.8 °F - 66.2 °F 88% 30.02 in 2.0 mi NE 8.1 mph - 0.10 in Rain , Thunderstorm Heavy Thunderstorms and Rain
3:14 AM 69.8 °F - 66.2 °F 88% 30.01 in 3.0 mi Calm Calm - 0.20 in Rain , Thunderstorm Heavy Thunderstorms and Rain
3:34 AM 69.8 °F - 66.2 °F 88% 30.00 in 7.0 mi East 3.5 mph - 0.24 in Rain Rain
3:48 AM 69.8 °F - 66.2 °F 88% 30.02 in 6.0 mi NE 3.5 mph - 0.27 in Rain Light Rain
3:53 AM 69.1 °F - 66.9 °F 93% 29.99 in 9.0 mi East 3.5 mph - 0.27 in Rain Light Rain
4:01 AM 69.8 °F - 66.2 °F 88% 30.01 in 10.0 mi East 4.6 mph - 0.00 in Rain Light Rain
4:07 AM 69.8 °F - 66.2 °F 88% 30.01 in 10.0 mi East 4.6 mph - 0.00 in Rain Light Rain
4:17 AM 69.8 °F - 66.2 °F 88% 29.98 in 10.0 mi East 9.2 mph - 0.01 in Rain Light Rain
4:28 AM 69.8 °F - 66.2 °F 88% 30.00 in 10.0 mi Variable 6.9 mph - 0.03 in Rain , Thunderstorm Light Rain
4:38 AM 69.8 °F - 66.2 °F 88% 30.01 in 9.0 mi Variable 5.8 mph - 0.04 in Rain Rain
4:53 AM 69.1 °F - 66.9 °F 93% 29.99 in 10.0 mi SSE 6.9 mph - 0.06 in Rain Light Rain
5:27 AM 69.8 °F - 66.2 °F 88% 29.97 in 9.0 mi SSE 10.4 mph 19.6 mph 0.05 in Rain , Thunderstorm Light Rain
5:42 AM 69.8 °F - 66.2 °F 88% 29.96 in 10.0 mi SE 9.2 mph 17.3 mph 0.07 in Rain Light Rain
5:53 AM 69.1 °F - 66.9 °F 93% 29.89 in 7.0 mi SSE 12.7 mph 21.9 mph 0.10 in Rain Rain
6:14 AM 69.8 °F - 66.2 °F 88% 29.99 in 10.0 mi Calm Calm - 0.02 in Rain , Thunderstorm Light Rain
6:29 AM 69.8 °F - 66.2 °F 88% 29.98 in 9.0 mi SSE 6.9 mph - 0.04 in Rain Light Rain
6:53 AM 70.0 °F - 66.0 °F 87% 29.95 in 10.0 mi SSW 4.6 mph - 0.04 in Rain Light Rain
7:30 AM 69.8 °F - 66.2 °F 88% 30.01 in 10.0 mi West 8.1 mph - 0.01 in Rain Light Rain
7:45 AM 69.8 °F - 66.2 °F 88% 29.93 in 10.0 mi SSW 11.5 mph - 0.02 in Rain Light Rain
7:53 AM 69.1 °F - 66.9 °F 93% 29.89 in 10.0 mi SSW 13.8 mph 18.4 mph 0.02 in Rain Light Rain
8:51 AM 69.8 °F - 66.2 °F 88% 29.90 in 10.0 mi SW 9.2 mph 26.5 mph 0.02 in Rain Light Rain
8:53 AM 71.1 °F - 66.0 °F 84% 29.89 in 10.0 mi SSW 11.5 mph 26.5 mph 0.02 in   Scattered Clouds
9:53 AM 71.1 °F - 66.9 °F 87% 29.92 in 10.0 mi NNW 4.6 mph - N/A   Clear
10:46 AM 73.4 °F - 68.0 °F 83% 29.98 in 10.0 mi North 10.4 mph - N/A   Partly Cloudy
10:53 AM 73.0 °F - 69.1 °F 87% 29.96 in 10.0 mi North 8.1 mph - N/A   Partly Cloudy
11:28 AM 75.2 °F - 69.8 °F 83% 29.99 in 10.0 mi North 8.1 mph - N/A   Mostly Cloudy
11:53 AM 77.0 °F - 69.1 °F 76% 29.96 in 10.0 mi North 10.4 mph - N/A   Mostly Cloudy
12:05 PM 77.0 °F - 68.0 °F 74% 29.99 in 10.0 mi NE 6.9 mph - N/A   Scattered Clouds
12:53 PM 80.1 °F 82.7 °F 68.0 °F 67% 29.96 in 10.0 mi North 10.4 mph 16.1 mph N/A   Scattered Clouds
1:38 PM 82.4 °F 85.4 °F 68.0 °F 62% 30.00 in 10.0 mi North 10.4 mph - N/A   Mostly Cloudy
1:53 PM 82.0 °F 85.5 °F 69.1 °F 65% 29.97 in 10.0 mi NNE 8.1 mph - N/A   Mostly Cloudy
2:08 PM 82.4 °F 86.3 °F 69.8 °F 66% 30.00 in 10.0 mi NNE 8.1 mph 16.1 mph N/A   Scattered Clouds
2:17 PM 82.4 °F 86.3 °F 69.8 °F 66% 30.00 in 10.0 mi NNE 9.2 mph - N/A   Mostly Cloudy
2:53 PM 84.0 °F 87.8 °F 69.1 °F 61% 29.97 in 10.0 mi NE 8.1 mph - N/A   Scattered Clouds
3:53 PM 84.9 °F 88.8 °F 69.1 °F 59% 29.96 in 10.0 mi NNE 10.4 mph - N/A   Clear
4:53 PM 84.9 °F 88.8 °F 69.1 °F 59% 29.95 in 10.0 mi NNE 6.9 mph - N/A   Scattered Clouds
5:53 PM 84.9 °F 88.8 °F 69.1 °F 59% 29.94 in 10.0 mi Variable 4.6 mph - N/A   Clear
6:53 PM 84.9 °F 88.2 °F 68.0 °F 57% 29.94 in 10.0 mi East 3.5 mph - N/A   Clear
7:53 PM 82.9 °F 87.0 °F 70.0 °F 65% 29.95 in 10.0 mi Calm Calm - N/A   Clear
8:53 PM 75.9 °F - 72.0 °F 87% 29.96 in 10.0 mi Calm Calm - N/A   Clear
9:53 PM 73.9 °F - 70.0 °F 87% 29.98 in 10.0 mi Calm Calm - N/A   Clear
10:53 PM 72.0 °F - 70.0 °F 93% 30.01 in 9.0 mi Calm Calm - N/A   Clear
11:53 PM 71.1 °F - 69.1 °F 93% 30.01 in 8.0 mi Calm Calm - N/A   Clear